Orlando International, FL

11:07 PM EST on February 17, 2018 (GMT -0500)
Orlando International

Weather History for KMCO - December, 2012

Change the Weather History Date:

Sunday, December 9, 2012

  Actual Average Record
Temperature  
Mean Temperature 74 °F 64 °F  
Max Temperature 83 °F 74 °F 87 °F (1978)
Min Temperature 64 °F 54 °F 29 °F (1934)
Degree Days  
Heating Degree Days 0 4  
Month to date heating degree days 0 30  
Since 1 July heating degree days 76 77  
Cooling Degree Days 9 3  
Month to date cooling degree days 47 27  
Year to date cooling degree days 3538 3381  
Growing Degree Days 23 (Base 50)    
Moisture  
Dew Point 66 °F    
Average Humidity 74    
Maximum Humidity 93    
Minimum Humidity 55    
Precipitation  
Precipitation T in 0.07 in 2.75 in (1969)
Month to date precipitation 0.06 0.73  
Year to date precipitation 39.87 48.88  
Sea Level Pressure  
Sea Level Pressure 30.05 in    
Wind  
Wind Speed 3 mph (SW)    
Max Wind Speed 12 mph    
Max Gust Speed 16 mph    
Visibility 10 miles    
Events Rain    
T = Trace of Precipitation, MM = Missing Value Source: NWS Daily Summary

Daily Weather History Graph

Daily Weather History Graph

Search for Another Location

Airport or City:

Trip Planner

Search our weather history database for the weather conditions in past years. The results will help you decide how hot, cold, wet, or windy it might be!

Date:

Astronomy

Dec. 09, 2012 Rise Set
Actual Time 7:06 AM EST 5:29 PM EST
Civil Twilight 6:40 AM EST 5:55 PM EST
Nautical Twilight 6:11 AM EST 6:24 PM EST
Astronomical Twilight 5:42 AM EST 6:53 PM EST
Moon 2:52 AM EST (12/9) 2:22 PM EST (12/9)
Length of Visible Light 11h 14m
Length of Day
10h 22m
Waning Crescent, 19% of the Moon is Illuminated
Dec 9
Waning Crescent
Dec 13
New
Dec 20
First Quarter
Dec 28
Full
Jan 4
Last Quarter

Hourly Weather History & Observations

Time (EST) Temp. Heat Index Dew Point Humidity Pressure Visibility Wind Dir Wind Speed Gust Speed Precip Events Conditions
12:53 AM 71.1 °F - 68.0 °F 90% 30.05 in 10.0 mi Calm Calm - N/A   Overcast
1:23 AM 71.6 °F - 68.0 °F 88% 30.05 in 10.0 mi Calm Calm - 0.00 in Rain Light Rain
1:47 AM 71.6 °F - 68.0 °F 88% 30.04 in 10.0 mi ESE 4.6 mph - 0.00 in   Overcast
1:53 AM 71.1 °F - 68.0 °F 90% 30.04 in 10.0 mi ESE 3.5 mph - 0.00 in   Overcast
2:53 AM 70.0 °F - 66.9 °F 90% 30.02 in 10.0 mi Calm Calm - 0.00 in   Mostly Cloudy
3:53 AM 69.1 °F - 66.9 °F 93% 30.03 in 10.0 mi Calm Calm - N/A   Mostly Cloudy
4:53 AM 69.1 °F - 66.0 °F 90% 30.04 in 10.0 mi Calm Calm - N/A   Scattered Clouds
5:35 AM 68.0 °F - 66.2 °F 94% 30.05 in 10.0 mi Calm Calm - N/A   Mostly Cloudy
5:53 AM 68.0 °F - 66.0 °F 93% 30.05 in 10.0 mi ESE 3.5 mph - N/A   Mostly Cloudy
6:11 AM 66.2 °F - 66.2 °F 100% 30.05 in 10.0 mi ESE 3.5 mph - N/A   Mostly Cloudy
6:53 AM 66.9 °F - 64.9 °F 93% 30.06 in 10.0 mi Calm Calm - N/A   Scattered Clouds
7:02 AM 66.2 °F - 64.4 °F 94% 30.07 in 10.0 mi Calm Calm - N/A   Mostly Cloudy
7:53 AM 69.1 °F - 66.9 °F 93% 30.08 in 10.0 mi Calm Calm - N/A   Overcast
8:53 AM 70.0 °F - 66.9 °F 90% 30.10 in 10.0 mi SSW 5.8 mph - N/A   Overcast
9:39 AM 71.6 °F - 66.2 °F 83% 30.11 in 10.0 mi South 5.8 mph - N/A   Mostly Cloudy
9:53 AM 73.0 °F - 66.9 °F 81% 30.10 in 10.0 mi SSW 4.6 mph - N/A   Mostly Cloudy
10:53 AM 75.0 °F - 66.9 °F 76% 30.10 in 10.0 mi SW 4.6 mph - N/A   Mostly Cloudy
11:53 AM 79.0 °F - 66.9 °F 66% 30.07 in 10.0 mi WSW 6.9 mph - N/A   Mostly Cloudy
12:53 PM 81.0 °F 83.0 °F 66.0 °F 60% 30.04 in 10.0 mi WSW 10.4 mph - N/A   Mostly Cloudy
1:53 PM 81.0 °F 82.7 °F 64.9 °F 58% 30.02 in 10.0 mi West 8.1 mph - N/A   Mostly Cloudy
2:53 PM 82.9 °F 84.6 °F 64.9 °F 54% 30.01 in 10.0 mi WNW 10.4 mph - N/A   Mostly Cloudy
3:53 PM 80.1 °F 81.7 °F 64.0 °F 58% 30.01 in 10.0 mi West 6.9 mph - N/A   Mostly Cloudy
4:53 PM 79.0 °F - 64.0 °F 60% 30.02 in 10.0 mi WNW 5.8 mph - N/A   Overcast
5:53 PM 75.9 °F - 64.0 °F 67% 30.03 in 10.0 mi WNW 3.5 mph - N/A   Mostly Cloudy
6:53 PM 73.0 °F - 64.9 °F 76% 30.04 in 10.0 mi Calm Calm - N/A   Clear
7:53 PM 69.1 °F - 64.0 °F 84% 30.05 in 10.0 mi Calm Calm - N/A   Clear
8:53 PM 66.9 °F - 64.0 °F 90% 30.06 in 10.0 mi Calm Calm - N/A   Clear
9:53 PM 66.0 °F - 63.0 °F 90% 30.06 in 10.0 mi Calm Calm - N/A   Clear
10:53 PM 66.0 °F - 64.0 °F 93% 30.05 in 10.0 mi Calm Calm - N/A   Clear
11:53 PM 64.0 °F - 63.0 °F 96% 30.04 in 10.0 mi Calm Calm - N/A   Clear